Flag for China Weather past 2 weeks in Changsha, Hunan, China

Now
70 °F

Fog.


Feels Like: 70 °F
Forecast: 69 / 86 °F
Wind: No wind

Location: Changsha

Current Time: Aug 29, 2015 at 3:32:49 AM

Latest Report: Aug 29, 2015 at 3:00 AM


Visibility: 2 mi

Pressure: 29.74 "Hg

Humidity: 94%

Dew point: 68 °F

Location of ChangshaLocation

Historic Weather in Changsha — Graph

°F

Changsha temperature yesterday

Maximum temperature yesterday: 81 °F (at 2:00 PM)
Minimum temperature yesterday: 72 °F (at 10:00 PM)
Average temperature yesterday: 76 °F

Past Weeks' High & Low Weather Summary

 TemperatureHumidityPressure
High93 °F (Aug 16, 3:00 PM)94% (Aug 15, 1:00 AM)29.89 "Hg (Aug 15, 1:00 AM)
Low72 °F (Aug 19, 8:00 PM)34% (Aug 23, 2:00 PM)29.56 "Hg (Aug 23, 6:00 PM)
Average80 °F75%29.73 "Hg
* Reported Aug 14 2:00 AM — Aug 29 2:00 AM, Changsha, Weather by CustomWeather, © 2015

Note: Actual official high and low records may vary slightly from our data, if they occured in-between our weather recording intervals... More about our weather records

Advertising

Changsha weather history for previous 24 hours

 ConditionsComfort  
Time TempWeatherWind HumidityBarometerVisibility
2:00 AM
Sat, Aug 29
72 °FFog.No wind88%29.77 "Hg2 mi
1:00 AM72 °FFog.1 mph88%29.77 "Hg3 mi
12:00 AM72 °FFog.1 mph88%29.77 "Hg2 mi
11:00 PM
Fri, Aug 28
72 °FFog.1 mph88%29.80 "Hg3 mi
10:00 PM72 °FClear.1 mph83%29.77 "Hg4 mi
9:00 PM73 °FClear.3 mph78%29.77 "Hg4 mi
8:00 PM75 °FClear.6 mph74%29.77 "Hg5 mi
7:00 PM75 °FClear.3 mph78%29.74 "Hg4 mi
6:00 PM77 °FClear.6 mph74%29.74 "Hg5 mi
5:00 PM79 °FClear.6 mph70%29.74 "Hg5 mi
4:00 PM79 °FScattered clouds.6 mph74%29.74 "Hg4 mi
3:00 PM79 °FDrizzle. Partly sunny.3 mph74%29.77 "Hg4 mi
2:00 PM81 °FDrizzle. Mostly cloudy.3 mph70%29.77 "Hg4 mi
1:00 PM79 °FLight rain. Fog.3 mph74%29.80 "Hg3 mi
12:00 PM79 °FLight rain. Fog.1 mph74%29.80 "Hg3 mi
11:00 AM79 °FLight rain. Fog.3 mph74%29.83 "Hg3 mi
10:00 AM77 °FFog.1 mph83%29.83 "Hg2 mi
9:00 AM75 °FFog.1 mph94%29.83 "Hg1 mi
8:00 AM73 °FFog.1 mph94%29.80 "Hg1 mi
7:00 AM73 °FLight rain. Fog.1 mph94%29.80 "Hg1 mi
6:00 AM73 °FLight rain. Fog.1 mph94%29.80 "Hg1 mi
5:00 AM73 °FLight rain. Fog.3 mph94%29.77 "Hg1 mi
4:00 AM73 °FLight rain. Fog.1 mph89%29.80 "Hg2 mi
3:00 AM73 °FFog.1 mph89%29.80 "Hg2 mi
Weather by CustomWeather, © 2015

See weather overviewHow to use our weather pages